PILOTS ONLINE: 619    ATC ONLINE: 133

EGDX

MOD St. Athan

Location

IATA DGX
City St. Athan
Country  United Kingdom
Latitude 51° 24' 17" N
Longitude 3° 26' 8" W
Elevation 163 ft
Type Medium Airport

Map

Weather

METAR
2014/09/02 17:50
EGDX 021750Z AUTO 11005KT 9999 OVC049/// 19/14 Q1021
TAF
No TAF available

Runways

08/26 5988 ft / 141 ft

Outbound flights

Callsign Flying to Pilot ATD/STD ETA Aircraft

Inbound flights

Callsign Flying from Pilot ATD ETA Aircraft